www.pogodaiklimat.ru

Погода и климат >> Архив погоды >> Индия >> Западная Бенгалия >> Колката


АРХИВ ПОГОДЫ в Колкате

Время (UTC), дата Ветер
(напр.,м/с)
 
Видим.   Явления Облачность Т
(С)
Тd
(С)
f
(%)
Тe
(С)
Тes
(С)
Комфортность P
(гПа)
Po
(гПа)
Тmin
(С)
Tmax
(С)
R
(мм)
R24
(мм)
S
(см)
21 15.09 Ю 1 2000 м мгла 6/3 540 м
[Sc Ac trans]
+28.2 +26.5 91 +44 +44 опасность
перегрева
1005.0 1004.3
00 16.09 ЮВ 1 2000 м мгла 8/4 540 м
[Sc Ac trans]
+28.0 +26.6 92 +43 +43 опасность
перегрева
1005.1 1004.4
03 16.09 Ю 2 2000 м мгла 8/8 540 м
[Sc diur, vesp]
+32.6 +27.4 74 +51 +53 опасность
перегрева
1006.2 1005.5 +27.6
06 16.09 Ю 2 2000 м мгла 8/6 540 м
[Sc diur, vesp Ac trans]
+34.0 +22.4 51 +43 +49 опасность
перегрева
1005.7 1005.0
09 16.09 ЮВ 2 2000 м мгла 9/6 540 м
[Sc diur, vesp Ac trans]
+34.6 +28.4 70 +56 +58 опасность
перегрева
1002.2 1001.5
12 16.09 Ю 2 2000 м мгла {гроза, дождь} 9/6 540 м
[Cb calv Ac trans]
+31.0 +26.3 76 +47 +47 опасность
перегрева
1002.9 1002.2 +35.5 0.0
15 16.09 Ю 2 2000 м мгла {гроза, дождь} 5/3 540 м
[Sc Ac trans]
+29.8 +26.2 81 +45 +45 опасность
перегрева
1005.7 1005.0 0.0
18 16.09 Ю 2 2000 м мгла {гроза, дождь} 4/3 540 м
[Sc Ac trans]
+29.0 +26.2 85 +44 +44 опасность
перегрева
1005.8 1005.1 0.0
21 16.09 Ю 1 2000 м мгла {гроза, дождь} 5/3 540 м
[Sc Ac trans]
+28.6 +25.2 82 +42 +42 опасность
перегрева
1005.0 1004.3 0.0
00 17.09 штиль 0 2000 м мгла {гроза, дождь} 3/3 540 м
[Sc]
+27.8 +26.4 92 +42 +42 опасность
перегрева
1005.9 1005.2 0.0
03 17.09 ЮВ 2 2000 м мгла 8/6 540 м
[Sc diur, vesp Ac trans]
+32.6 +26.2 69 +49 +51 опасность
перегрева
1008.1 1007.4 +27.4 0.0
06 17.09 ЮВ 2 2000 м мгла 6/6 540 м
[Sc diur, vesp]
+33.8 +25.7 63 +49 +57 опасность
перегрева
1007.2 1006.5
09 17.09 ЮВ 2 2000 м мгла 5/5 540 м
[Sc diur, vesp]
+33.8 +24.8 59 +47 +52 опасность
перегрева
1005.2 1004.5
12 17.09 ЮВ 1 2000 м мгла 6/6 540 м
[Cb calv]
+32.2 +25.1 66 +46 +46 опасность
перегрева
1005.3 1004.6 +35.4
15 17.09 штиль 0 2000 м мгла 5/4 540 м
[Sc Ac trans]
+29.6 +26.0 81 +44 +44 опасность
перегрева
1007.4 1006.7
18 17.09 штиль 0 2000 м мгла 3/3 540 м
[Sc]
+28.0 +26.6 92 +43 +43 опасность
перегрева
1007.9 1007.2
21 17.09 штиль 0 2000 м мгла 3/3 540 м
[Sc]
+27.4 +25.9 92 +41 +41 опасность
перегрева
1007.7 1007.0
00 18.09 штиль 0 2000 м дымка 4/3 540 м
[Sc Ac trans]
+27.0 +26.4 97 +41 +41 опасность
перегрева
1008.4 1007.7
03 18.09 В 2 2000 м мгла 5/5 540 м
[Sc diur, vesp]
+32.2 +25.8 69 +47 +52 опасность
перегрева
1010.1 1009.4 +27.0
06 18.09 В 2 2000 м мгла 8/8 540 м
[Sc diur, vesp]
+33.8 +23.8 56 +45 +49 опасность
перегрева
1009.9 1009.2
09 18.09 В 3 2000 м слаб. дождь 10/8 450 м
[Cb calv As op]
+28.0 +26.9 94 +44 +44 опасность
перегрева
1007.7 1007.0 5
12 18.09 В 2 2000 м мгла {дождь} 10/6 540 м
[Cb calv Ac trans]
+28.8 +26.6 88 +45 +45 опасность
перегрева
1008.3 1007.6 +35.0 6
15 18.09 штиль 0 2000 м мгла 8/5 540 м
[Sc Ac trans]
+28.4 +26.4 89 +43 +43 опасность
перегрева
1010.0 1009.3 6
18 18.09 штиль 0 2000 м мгла 8/4 540 м
[Sc Ac trans]
+28.0 +26.6 92 +43 +43 опасность
перегрева
1010.1 1009.4 6
21 18.09 штиль 0 2000 м мгла 3/3 540 м
[Sc]
+27.6 +26.5 94 +42 +42 опасность
перегрева
1009.3 1008.6 6
00 19.09 штиль 0 2000 м мгла 4/4 540 м
[Sc]
+27.2 +26.9 98 +42 +42 опасность
перегрева
1009.9 1009.2 6
03 19.09 В 1 2000 м мгла 9/6 540 м
[Sc diur, vesp Ac trans]
+31.2 +27.1 79 +49 +51 опасность
перегрева
1011.3 1010.6 +26.9 6
06 19.09 В 1 2000 м мгла 9/6 540 м
[Sc diur, vesp Ac trans]
+32.6 +25.9 68 +48 +53 опасность
перегрева
1010.2 1009.5
09 19.09 В 2 2000 м мгла 6/6 540 м
[Sc diur, vesp]
+34.2 +25.5 61 +49 +53 опасность
перегрева
1007.2 1006.5
12 19.09 ЮЗ 2 2000 м слаб. дождь 8/6 540 м
[Sc diur, vesp Ac trans]
+32.0 +24.0 63 +44 +44 опасность
перегрева
1007.1 1006.4 +34.7 0.0
15 19.09 Ю 1 2000 м мгла {дождь} 5/5 540 м
[Cb calv]
+30.0 +26.1 80 +45 +45 опасность
перегрева
1010.3 1009.6 0.0
18 19.09 Ю 2 2000 м мгла 3/3 540 м
[Sc]
+28.8 +26.3 86 +44 +44 опасность
перегрева
1009.5 1008.8 0.0
21 19.09 штиль 0 2000 м мгла 3/3 540 м
[Sc]
+28.0 +26.0 89 +42 +42 опасность
перегрева
1008.4 1007.7 0.0
00 20.09 штиль 0 2000 м мгла 4/4 540 м
[Sc]
+27.8 +26.4 92 +42 +42 опасность
перегрева
1009.0 1008.3 0.0
03 20.09 штиль 0 2000 м мгла 6/6 540 м
[Sc diur, vesp]
+31.4 +25.2 70 +45 +50 опасность
перегрева
1010.6 1009.9 +27.4 0.0
06 20.09 штиль 0 2000 м мгла 8/6 540 м
[Sc diur, vesp Ac trans]
+33.0 +24.2 60 +45 +52 опасность
перегрева
1009.5 1008.8
09 20.09 З 1 2000 м мгла 6/6 540 м
[Cb calv]
+34.8 +24.3 55 +47 +52 опасность
перегрева
1005.8 1005.1
12 20.09 штиль 0 2000 м мгла {гроза, дождь} 9/6 540 м
[Sc diur, vesp Ac trans]
+28.2 +27.1 94 +45 +45 опасность
перегрева
1005.7 1005.0 +35.5 17
15 20.09 штиль 0 2000 м мгла {гроза, дождь} 9/6 540 м
[Cb calv Ac trans]
+28.8 +26.9 89 +45 +45 опасность
перегрева
1008.5 1007.8 17
18 20.09 Ю 1 2000 м мгла {гроза, дождь} 8/5 540 м
[Sc Ac trans]
+29.6 +26.2 82 +45 +45 опасность
перегрева
1008.2 1007.5 17
21 20.09 штиль 0 2000 м мгла {гроза, дождь} 6/4 540 м
[Sc Ac trans]
+28.4 +26.4 89 +43 +43 опасность
перегрева
1007.4 1006.7 17
00 21.09 штиль 0 2000 м мгла {гроза, дождь} 4/4 540 м
[Sc]
+27.6 +26.5 94 +42 +42 опасность
перегрева
1007.7 1007.0 17
03 21.09 ЮЗ 1 2000 м мгла 3/3 540 м
[Sc]
+31.0 +26.0 75 +46 +54 опасность
перегрева
1009.5 1008.8 +27.1 17
06 21.09 С 1 2000 м мгла 8/6 540 м
[Cb calv Ac trans]
+33.4 +24.6 60 +46 +53 опасность
перегрева
1007.9 1007.2
09 21.09 З 1 2000 м гроза, ливневой дождь 9/6 450 м
[Cb calv As op]
+26.4 +24.7 90 +37 +39 очень
душно
1005.8 1005.1 5
12 21.09 штиль 0 2000 м мгла {гроза, дождь} 8/5 540 м
[Sc Ac trans]
+27.0 +25.0 89 +39 +39 очень
душно
1006.6 1005.9 +34.6 5
15 21.09 штиль 0 2000 м мгла 8/4 540 м
[Sc Ac trans]
+26.8 +25.1 90 +39 +39 очень
душно
1008.3 1007.6 5
18 21.09 штиль 0 2000 м дымка 9/5 540 м
[Sc Ac trans]
+26.4 +25.0 92 +38 +38 очень
душно
1008.8 1008.1 5
21 21.09 штиль 0 2000 м дымка 9/5 540 м
[Sc Ac trans]
+26.0 +24.9 94 +37 +37 очень
душно
1008.5 1007.8 5
00 22.09 штиль 0 2000 м дымка 5/3 540 м
[Sc Ac trans]
+26.6 +26.3 98 +40 +40 очень
душно
1009.1 1008.4 5
03 22.09 штиль 0 2000 м мгла 9/6 540 м
[Sc diur, vesp Ac trans]
+30.0 +26.1 80 +45 +48 опасность
перегрева
1010.8 1010.1 +26.0 5
06 22.09 В 2 2000 м мгла 8/6 540 м
[Sc diur, vesp Ac trans]
+32.4 +23.2 58 +43 +48 опасность
перегрева
1009.6 1008.9
09 22.09 Ю 2 2000 м мгла 9/6 540 м
[Cb calv Ac trans]
+33.4 +25.6 64 +48 +51 опасность
перегрева
1006.6 1005.9
12 22.09 В 2 2000 м мгла 9/5 540 м
[Sc Ac trans]
+29.6 +24.8 75 +42 +42 опасность
перегрева
1008.3 1007.6 +34.7
15 22.09 В 1 2000 м мгла 8/5 540 м
[Sc Ac trans]
+28.4 +25.3 83 +41 +41 опасность
перегрева
1010.6 1009.9

 

Местоположение метеостанции Колката (Западная Бенгалия, Индия): широта 22.65 долгота 88.45 высота над уровнем моря 6 м.

В архиве по умолчанию представлена погода в Колкате за последнюю неделю. Архивные данные за месяц целиком и за предыдущие месяцы, начиная с января 2011 года, Вы можете получить, выбрав интересующий диапазон дат из раскрывающегося списка и нажав кнопку "Ввод!".


*Определитесь, кто Вы:
робот инопланетянин человек

Внимание! Время в таблицах - всемирное. Для получения местного времени необходимо прибавить поправку, которая равна 5.5 ч.

Смотрите также архив погоды в соседних городах и на ближайших метеорологических станциях:

Погода в Колкате (Западная Бенгалия, Индия) (18 км)
Погода в Багати (Западная Бенгалия, Индия) (38 км)
Погода в Бейсирхэте (Западная Бенгалия, Индия) (43 км)
Погода в Каннинге (Западная Бенгалия, Индия) (50 км)
Погода в Улуберии (Западная Бенгалия, Индия) (54 км)
Погода в Даймонд Харбор (Западная Бенгалия, Индия) (58 км)
Погода в Саткхире (Бангладеш) (65 км)
Погода в Халдии (Западная Бенгалия, Индия) (80 км)
Погода в Кришнанагаре (Западная Бенгалия, Индия) (84 км)
Погода в Бардхамане (Западная Бенгалия, Индия) (89 км)

Пояснения к столбцам:

Ветер - указаны скорость ветра в м/с - средняя за 10 мин, порывы в срок и между сроками (в фигурных скобках) и направление, откуда дует ветер: С - северный, СВ - северо-восточный, В - восточный, ЮВ - юго-восточный, Ю - южный, ЮЗ - юго-западный, З - западный, СЗ - северо-западный.
Видимость - горизонтальная дальность видимости в метрах или километрах. При видимости от 1 до 10 км при отсутствии осадков обычно наблюдается дымка, при ухудшении видимости до 1 км и менее - туман. В сухую погоду видимость может ухудшаться дымом, пылью или мглою.
Явления - указаны атмосферные явления, наблюдавшиеся в срок или в последний час перед сроком; фигурными скобками обозначены явления, наблюдавшиеся между сроками (за 1-3 часа до срока); квадратными скобками обозначены град или гололедные отложения с указанием их диаметра в мм.
Облачность - указаны через наклонную черту общая и нижняя облачность в баллах и высота нижней границы облаков в метрах; квадратными скобками обозначены формы облаков: Ci - перистые, Cs - перисто-слоистые, Cc - перисто-кучевые, Ac - высококучевые, As - высокослоистые, Sc - слоисто-кучевые, Ns - слоисто-дождевые, Cu - кучевые, Cb - кучево-дождевые. Подробнее классификацию облаков см. в Атласе облаков (PDF).
T - Температура воздуха - температура, измеренная на высоте 2 м над землей.
Td - Температура точки росы - температура, при понижении до которой содержащийся в воздухе водяной пар достигнет насыщения.
f - Относительная влажность воздуха - влажноcть воздуха, измеренная на высоте 2 м над землей.
Te - Эффективная температура - температура, которую ощущает одетый по сезону человек в тени. Характеристика душности погоды. При расчете учитывается влияние влажности воздуха и скорости ветра на теплоощущения человека.
Tes - Эффективная температура на солнце - температура, которую ощущает человек, с поправкой на солнечный нагрев. Характеристика знойности погоды. Зависит от высоты солнца над горизонтом, облачности и скорости ветра. Ночью, в пасмурную погоду, а также при ветре 12 м/с и более поправка равна нулю.
P - Атмосферное давление - приведенное к уровню моря атмосферное давление.
Po - Атмосферное давление - измеренное на уровне метеостанции атмосферное давление.
Tmin - Минимальная температура - минимум температуры воздуха на высоте 2 м над землей.
Tmax - Максимальная температура - максимум температуры воздуха на высоте 2 м над землей.
R - Количество осадков - Количество выпавших осадков за период времени, мм. При наведении курсора мыши на число - период времени, за который выпало указанное количество осадков.
R24 - Количество осадков - Количество выпавших осадков за 24 часа, мм.
S - Снежный покров - Высота снежного покрова, см. При наведении курсора мыши на число - состояние снежного покрова и степень покрытия местности в баллах.